Regional Weather Roundup
Issued by NWS

Home | Current Version | Previous Version | Graphics & Text | Print | Product List | Glossary Off
Versions: 1 2 3 4 5 6 7 8 9 10 11 12 13 14 15 16 17 18 19 20 21 22 23 24 25 26 27 28 29 30 31 32 33 34 35 36 37 38 39 40 41 42 43 44 45 46 47 48 49 50

000
ASUS43 KTOP 161159
RWRKS

WEATHER ROUNDUP FOR KANSAS
NATIONAL WEATHER SERVICE GOODLAND KS
700 AM CDT WED AUG 16 2017

NOTE:  "FAIR" INDICATES FEW OR NO CLOUDS BELOW 12,000 FEET WITH NO
SIGNIFICANT WEATHER AND/OR OBSTRUCTIONS TO VISIBILITY.

KSZ001>006-013>018-027>032-041>047-161300-
NORTHWEST KANSAS

CITY           SKY/WX    TMP DP  RH WIND       PRES   REMARKS
GOODLAND       CLOUDY    61  59  93 SE3       29.94S
6HR MIN TEMP:  60; 6HR MAX TEMP:  65; 6HR PCP:  0.04;

HAYS           LGT RAIN  63  61  93 E10       29.86R
HILL CITY      CLOUDY    63  63 100 S5        29.86R
6HR MIN TEMP:  62; 6HR MAX TEMP:  75; 6HR PCP:  1.51;

RUSSELL        CLOUDY    63  61  93 E12       29.85R
6HR MIN TEMP:  62; 6HR MAX TEMP:  74; 6HR PCP:  1.30;

$$

KSZ061>065-074>080-084>089-161300-
SOUTHWEST KANSAS

CITY           SKY/WX    TMP DP  RH WIND       PRES   REMARKS
DODGE CITY     PTCLDY    65  62  90 N16       29.89R
6HR MIN TEMP:  65; 6HR MAX TEMP:  77;

ELKHART          N/A     62  58  87 N10         N/A
GARDEN CITY    PTCLDY    63  60  90 N10       29.90R
6HR MIN TEMP:  63; 6HR MAX TEMP:  73;

GREAT BEND     CLOUDY    64  62  93 NE14G22   29.88R
LIBERAL        PTCLDY    66  62  87 N10       29.89R
$$

KSZ066>073-081>083-090>101-161300-
SOUTHEAST KANSAS

CITY           SKY/WX    TMP DP  RH WIND       PRES   REMARKS
CHANUTE        PTCLDY    72  71  97 MISG      29.84R
6HR MIN TEMP:  71; 6HR MAX TEMP:  74; 6HR PCP: TRACE;

COFFEYVILLE    PTCLDY    73  72  96 S6        29.83R
6HR MIN TEMP:  71; 6HR MAX TEMP:  74; 6HR PCP: TRACE;

HUTCHINSON     LGT RAIN  73  71  93 N8        29.86R FOG
6HR MIN TEMP:  71; 6HR MAX TEMP:  74; 6HR PCP:  0.05;

MEDICINE LODGE   N/A     72  70  93 SE3       29.82R
NEWTON         PTCLDY    72  70  93 S9        29.85R
PARSONS        PTCLDY    73  71  93 CALM      29.85R
6HR MIN TEMP:  72; 6HR MAX TEMP:  74; 6HR PCP: TRACE;

WICHITA INTL   MOCLDY    73  72  96 VRB7      29.83R
6HR MIN TEMP:  72; 6HR MAX TEMP:  73;

WICHITA JABRA  PTCLDY    73  71  93 S10       29.83R
6HR MIN TEMP:  71; 6HR MAX TEMP:  73; 6HR PCP: TRACE;

WINFIELD       CLEAR     73  71  93 S9        29.83R
6HR MIN TEMP:  72; 6HR MAX TEMP:  73;

$$

KSZ007>012-019>026-033>040-048>060-102>105-161300-
NORTHEAST KANSAS

CITY           SKY/WX    TMP DP  RH WIND       PRES   REMARKS
CONCORDIA      LGT RAIN  65  63  93 NW13      29.84R
6HR MIN TEMP:  63; 6HR MAX TEMP:  76; 6HR PCP:  1.02;

EMPORIA        CLOUDY    72  70  93 S9        29.82R
6HR MIN TEMP:  71; 6HR MAX TEMP:  75; 6HR PCP:  0.13;

LAWRENCE       TSTM      71  70  96 S8        29.84R
6HR MIN TEMP:  71; 6HR MAX TEMP:  76; 6HR PCP:  0.20;

MANHATTAN      CLOUDY    74  71  91 S7        29.76F
6HR MIN TEMP:  73; 6HR MAX TEMP:  78;

OLATHE IND     CLOUDY    73  71  93 S6        29.85R
6HR MIN TEMP:  73; 6HR MAX TEMP:  76; 6HR PCP:  0.12;

OLATHE EXE     LGT RAIN  72  72 100 S6        29.85R
6HR MIN TEMP:  72; 6HR MAX TEMP:  75; 6HR PCP:  0.14;

SALINA         RAIN      66  64  93 N13       29.87F FOG
6HR MIN TEMP:  66; 6HR MAX TEMP:  79; 6HR PCP:  0.43;

TOPEKA BILLARD CLOUDY    75  72  90 S8        29.81R
6HR MIN TEMP:  74; 6HR MAX TEMP:  78; 6HR PCP: TRACE;

TOPEKA FORBES  CLOUDY    75  72  90 S9        29.82R
6HR MIN TEMP:  74; 6HR MAX TEMP:  78; 6HR PCP:  0.06;

$$




USA.gov is the U.S. government's official web portal to all federal, state and local government web resources and services.